EW9525 Weather Reports


Display with metric or nautical units.
time (UTC)temp
F
wind
direction
speed
MPH
gust
MPH
rain 1hr
in
rain 24hr
in
rain mn
in
humidity
%
barometer
mb
20260504221549 76 11 19.0 26.0 0.00 0.00 0.00 26 1000.8
20260504220048 76 350 19.0 26.0 0.00 0.00 0.00 26 1000.7
20260504214555 77 356 17.0 23.0 0.00 0.00 0.00 26 1000.6
20260504213048 78 342 15.0 23.0 0.00 0.00 0.00 25 1000.6
20260504211547 79 11 15.0 22.0 0.00 0.00 0.00 24 1000.7
20260504210058 79 7 16.0 25.0 0.00 0.00 0.00 24 1000.7
20260504204603 80 336 20.0 27.0 0.00 0.00 0.00 26 1000.7
20260504203059 79 329 18.0 23.0 0.00 0.00 0.00 26 1000.6
20260504201543 80 338 14.0 18.0 0.00 0.00 0.00 23 1001.0
20260504200043 83 290 4.0 13.0 0.00 0.00 0.00 19 1000.9
20260504194540 83 16 5.0 8.0 0.00 0.00 0.00 16 1001.1
20260504193038 81 91 4.0 9.0 0.00 0.00 0.00 20 1001.1
20260504191537 81 40 7.0 12.0 0.00 0.00 0.00 19 1001.3
20260504190035 81 39 6.0 13.0 0.00 0.00 0.00 19 1001.1
20260504184533 81 337 3.0 8.0 0.00 0.00 0.00 19 1001.7
20260504183031 80 86 2.0 10.0 0.00 0.00 0.00 18 1001.9
20260504181529 80 349 7.0 12.0 0.00 0.00 0.00 19 1001.9
20260504180028 79 310 3.0 9.0 0.00 0.00 0.00 22 1002.1
20260504174527 78 347 9.0 15.0 0.00 0.00 0.00 20 1002.2
20260504173024 79 360 4.0 12.0 0.00 0.00 0.00 22 1002.3
20260504171522 78 23 4.0 7.0 0.00 0.00 0.00 22 1002.3
20260504081509 44 193 2.0 4.0 0.00 0.00 0.00 64 1004.1
20260504044539 51 295 1.0 4.0 0.00 0.00 0.00 53 1006.4
20260504043039 58 58 3.0 5.0 0.00 0.00 0.00 42 1006.2
20260504041543 54 335 0.0 3.0 0.00 0.00 0.00 48 1006.4
20260504040041 57 318 1.0 3.0 0.00 0.00 0.00 44 1006.3
20260504034544 59 60 2.0 3.0 0.00 0.00 0.00 42 1006.2
20260504033036 60 76 3.0 7.0 0.00 0.00 0.00 42 1006.1
20260504031540 60 74 2.0 4.0 0.00 0.00 0.00 40 1006.2
20260504030036 60 32 0.0 2.0 0.00 0.00 0.00 40 1006.1
20260504024540 62 22 1.0 3.0 0.00 0.00 0.00 37 1006.0
20260504023035 63 22 1.0 2.0 0.00 0.00 0.00 37 1005.9
20260504021536 63 18 1.0 2.0 0.00 0.00 0.00 37 1005.7
20260504020038 64 34 2.0 3.0 0.00 0.00 0.00 36 1005.6
20260504014537 65 23 2.0 3.0 0.00 0.00 0.00 34 1005.7
20260504013042 67 16 3.0 5.0 0.00 0.00 0.00 32 1005.7
20260504011532 69 25 4.0 6.0 0.00 0.00 0.00 30 1005.7
20260504010030 71 15 5.0 8.0 0.00 0.00 0.00 28 1005.9
20260504004528 72 11 5.0 9.0 0.00 0.00 0.00 26 1006.1
20260504003026 74 359 6.0 9.0 0.00 0.00 0.00 24 1006.3
20260504001534 75 23 6.0 11.0 0.00 0.00 0.00 24 1006.2
20260504000025 76 9 8.0 12.0 0.00 0.00 0.00 22 1006.5
20260503234524 75 13 8.0 12.0 0.00 0.00 0.00 23 1006.5
20260503233023 75 8 8.0 12.0 0.00 0.00 0.00 22 1006.6
20260503231525 76 30 8.0 11.0 0.00 0.00 0.00 22 1006.7
20260503230035 76 335 6.0 13.0 0.00 0.00 0.00 22 1006.9
20260503224521 76 35 7.0 11.0 0.00 0.00 0.00 22 1007.0
20260503223019 77 1 6.0 12.0 0.00 0.00 0.00 22 1007.2